STARLINK-1462 (45770 NORAD) Tracking and Keplerian Element Data

This shows tracking and keplerian element data for the satellite.

Feedback or suggestion? Click here.




ElementValue
Catalog45770
NameSTARLINK-1462
Epoch Orbit188
Epoch Day268.91668981
Epoch Year2020
RAAN149.1261
Inclination52.999
Eccentricity0.0002923
Argument of Perigee14.293
Mean Anonmoly95.122
Mean Motion15.62760507
Decay Rate-5.997E-05
L11 45770U 20038AS 20268.91668981 -.00005997 00000-0 -59647-4 0 9999
L22 45770 52.9990 149.1261 0002923 14.2930 95.1220 15.62760507 1883

Live tracking and technical data element details for STARLINK-1462 (NORAD 45770). STARLINK-1462 can be tracked NOW for your location showing map with azimuth and elevation plus other details from your city location.

Track the satellite on the map from your city or location and see movement details for azimuth, elevation, latitude, longitude, range, height, and movement on the map or in text.







IsCatalogInMostPopularTable: catalog: 45770, numindb: 18
Update: records affected: 1



GetName: 45770 STARLINK-1462

Hit Count: updated at: Sun, 27 Sep 2020 06:05:35 GMT